{"data":{"norad_id":48652,"epoch":"2026-05-25T03:30:15.481728Z","epoch_age_seconds":69206,"freshness":"FRESH","line1":"1 48652U 21044Q   26145.14601252  .00088058  00000+0  69953-3 0  9998","line2":"2 48652  53.0486 104.7867 0001266 123.3752 236.7386 15.70535361275706","mean_motion":15.70535361,"eccentricity":0.0001266,"inclination_deg":53.0486,"raan_deg":104.7867,"arg_perigee_deg":123.3752,"mean_anomaly_deg":236.7386,"bstar":0.00069953,"rev_number":27570,"period_min":91.688479976861,"perigee_km":356.51320291724,"apogee_km":358.21863225597,"semimajor_km":6735.5029175866,"source":"CELESTRAK","updated_at":"2026-05-25T13:38:16.755540Z"}}